Presure
159 144 157 120 157 137 135 141 131 161 144 93 127 97 124 170 97 178 178 166 168 128 136 115 120 110 143 103 113 93 117 99 113 93 128 127 140 93 108 165 129 137 118 156 112 143 105 118 123
124 120 187 128 120 121 126 129 136 148 159 147 112 119 113 114 114 171 166 180 177 170 136 122 136 109 123 163 136 140 93 138 89 97 97 103 120 93 95 169 98 95 137 109 98 153 147 142 138
105 131 185 121 102 120 127 115 120 138 105 87 106 76 130 84 120 143 159 164 159 85 105 144 182 165 86 115 91 85 90 93 97 89 90 90 146 96 93 100 98 96 110 105 130 103 109 109 132
105 132 146 129 135 117 119 128 132 129 115 140 94 153 80 123 85 93 96 186 178 104 166 165 88 169 145 88 89 87 94 101 125 98 93 90 107 99 95 97 129 142 143 111 102 167 135 135 143
91 145 148 116 133 123 113 125 128 136 141 145 136 149 118 102 126 126 83 102 125 158 149 110 175 166 171 166 95 149 93 132 96 87 154 94 136 103 96 110 103 103 137 119 103 146 128 149 142
125 121 116 110 113 112 118 88 114 134 101 118 130 128 138 131 158 129 132 151 96 79 118 148 172 157 89 96 156 99 91 96 89 108 129 91 95 94 103 99 98 95 101 127 145 133 129 126 138
90 120 124 120 106 100 113 81 115 120 115 129 124 157 116 170 136 76 92 84 92 169 169 80 110 82 165 134 110 110 94 104 90 92 93 95 125 151 143 107 115 98 125 114 138 109 127 117 148
198 122 117 113 73 130 110 133 128 137 135 132 133 133 138 145 132 169 130 90 123 132 92 85 183 156 89 96 90 90 88 89 93 87 97 108 96 102 156 156 96 104 141 140 116 114 107 115 154
126 107 114 132 151 106 87 131 131 119 116 131 122 213 148 146 180 145 163 183 191 145 145 141 79 112 105 88 89 88 92 94 117 94 91 159 88 90 94 104 134 92 108 107 135 105 99 148 129
132 115 112 112 139 91 103 146 173 121 133 137 121 231 132 147 156 167 161 142 121 102 79 63 91 101 88 94 163 141 96 103 107 133 163 164 136 132 124 139 101 89 124 160 126 127 144 138 142
115 154 126 183 185 149 129 99 80 114 96 105 115 129 194 136 205 188 152 74 131 169 128 160 121 143 95 157 81 155 150 148 144 132 103 101 162 157 110 113 111 166 168 160 157 132 127 142 138
111 126 136 118 128 139 133 156 159 168 132 84 107 143 122 158 160 122 174 155 139 155 141 182 159 154 161 176 179 168 96 95 79 157 168 153 160 159 163 153 153 126 120 125 126 124 137 149 137
180 173 142 145 162 170 179 152 137 123 233 178 163 252 196 176 198 128 155 156 144 136 137 125 158 125 159 160 169 171 114 169 162 160 169 167 149 134 140 140 158 141 140 148 146 93 114 83 80
130 172 175 366 293 378 285 296 93 115 90 88 246 109 209 119 188 149 149 123 150 142 148 122 131 179 161 140 146 164 139 158 160 135 110 118 155 84 150 111 145 141 145 145 98 78 154 124 90
403 380 378 390 406 389 337 83 74 303 301 271 279 246 219 131 135 164 120 144 156 150 163 103 103 118 118 125 132 144 163 143 164 168 161 141 193 173 155 168 160 163 163 165 170 152 174 180 146
427 386 423 451 402 379 242 108 285 272 306 282 270 255 244 154 126 184 187 171 136 124 153 129 109 152 117 129 162 150 134 167 174 179 177 179 165 169 170 164 163 166 170 167 170 172 177 137 173
426 422 416 403 292 383 317 290 275 250 289 261 275 239 227 121 124 153 118 200 156 146 153 140 141 139 145 148 149 128 152 159 150 153 177 172 168 177 160 177 171 155 153 147 156 165 158 159 163
387 391 406 431 398 315 316 260 259 254 278 272 280 260 245 229 153 151 205 129 172 132 149 147 172 127 104 137 114 144 125 133 134 132 180 188 158 175 174 179 179 180 179 165 166 152 164 168 173
373 350 182 394 310 306 225 267 262 260 266 282 255 283 254 227 197 218 176 147 140 166 145 126 119 133 145 191 189 156 196 151 143 140 143 174 175 180 161 164 171 168 166 159 149 168 180 189 188
157 162 157 315 286 187 274 272 275 242 261 275 262 260 258 241 209 165 201 173 170 142 187 145 170 187 154 143 123 168 198 156 161 137 161 131 126 169 157 150 159 165 187 183 181 179 185 181 163
147 151 190 331 300 271 274 270 275 238 251 283 323 260 266 204 140 207 181 155 168 152 156 118 124 178 194 156 141 154 135 156 165 161 167 149 161 173 166 173 170 168 184 158 143 148 152 127 210
151 327 319 322 290 260 260 245 246 270 247 264 287 272 265 250 240 202 194 183 191 160 165 143 142 141 157 157 187 162 138 155 207 152 194 150 171 150 215 139 154 130 132 166 198 187 186 133 127
143 314 301 299 278 269 264 251 254 243 268 273 286 302 253 263 198 151 174 195 174 155 151 131 145 136 134 141 157 167 156 135 169 196 157 170 166 126 151 178 159 148 134 170 147 172 176 178 177
147 309 295 292 276 278 272 262 245 249 236 235 274 271 261 260 247 231 164 180 163 172 179 157 176 168 161 144 158 183 148 154 175 169 170 168 143 167 162 108 163 161 141 155 161 164 149 148 163
349 375 289 286 273 265 287 260 268 247 242 254 260 257 239 259 245 219 213 189 210 176 176 173 166 165 148 188 154 158 170 164 157 151 157 165 180 163 190 173 158 172 165 194 167 155 166 169 170
384 366 299 285 273 264 264 279 256 249 244 234 233 242 276 317 266 233 192 151 174 180 182 174 176 139 156 158 143 158 181 159 161 151 177 187 161 145 170 169 164 172 148 158 177 168 193 171 171
414 343 354 287 284 294 280 275 260 254 248 253 249 266 259 269 294 240 157 166 159 129 176 196 174 156 161 132 172 195 167 168 172 170 169 168 164 163 146 165 158 173 185 154 152 166 184 165 169
343 329 273 297 271 270 281 269 267 254 261 245 233 234 231 247 259 235 240 236 231 199 191 176 166 178 168 166 156 149 151 169 158 149 177 131 161 168 165 162 175 169 139 176 188 187 173 170 175
135 381 291 284 276 273 274 263 257 249 257 262 241 265 252 237 241 251 262 236 247 215 212 187 178 186 187 184 186 131 183 161 170 178 159 128 155 188 180 163 174 146 180 153 155 181 185 186 178
131 162 275 272 268 262 278 274 267 262 255 249 241 234 236 243 251 263 272 248 223 179 218 222 198 196 194 158 193 191 179 176 192 193 186 175 160 161 173 173 166 172 178 150 180 184 179 145 188
Wind_Speed
40 38 52 28 34 24 30 33 49 44 43 14 27 24 32 44 22 53 56 52 51 38 41 33 35 27 36 21 25 14 28 15 23 10 29 28 39 10 14 39 26 33 21 39 20 36 18 22 24
29 29 54 34 26 32 38 45 43 47 50 42 28 29 31 30 31 52 51 55 53 52 37 36 36 28 27 47 36 42 14 40 12 14 13 15 30 12 15 37 16 15 33 20 19 40 36 36 34
29 28 60 26 42 39 47 58 56 44 28 18 36 18 30 24 34 45 51 50 49 20 29 39 52 50 18 32 17 13 15 16 18 14 14 14 41 18 15 20 21 19 21 23 27 22 23 27 33
30 32 38 34 31 50 55 54 53 34 34 37 43 37 22 34 25 31 32 58 57 30 51 53 24 52 46 19 18 17 20 22 36 20 18 18 23 22 19 20 34 37 42 26 26 41 36 36 40
30 41 42 37 36 34 42 57 51 40 39 40 39 40 31 25 42 36 24 30 41 53 47 35 53 54 54 52 26 47 22 45 22 18 47 23 43 26 24 29 23 26 41 28 29 43 29 36 42
37 33 34 41 42 46 48 29 26 47 28 35 38 41 37 42 49 41 39 49 36 20 33 48 54 49 22 27 48 24 23 26 21 30 34 25 28 26 30 28 27 26 29 35 41 38 34 33 43
28 34 37 39 46 34 33 20 39 25 29 43 43 55 42 50 46 19 30 28 29 56 56 16 30 17 53 47 30 34 27 29 25 27 29 31 37 40 44 31 35 31 36 34 44 34 35 36 44
73 35 39 44 20 65 40 49 68 65 54 48 52 49 47 46 50 64 46 40 42 47 35 22 60 56 25 34 29 28 27 28 32 25 34 37 33 34 46 44 32 34 46 44 37 36 35 36 45
44 38 45 55 62 52 34 68 68 38 39 46 45 88 61 53 65 56 58 64 73 52 50 49 23 36 34 30 32 30 33 37 36 35 30 47 28 31 33 37 43 27 38 36 45 38 35 48 41
38 48 47 34 60 7 30 53 71 31 60 53 48 96 49 57 54 66 64 55 44 34 29 7 34 37 30 39 58 54 42 47 43 41 51 49 45 43 45 44 39 26 41 47 44 45 45 48 49
38 50 62 76 79 66 71 47 35 38 26 33 48 57 78 56 71 62 68 12 55 66 54 67 45 53 34 57 28 54 52 50 48 48 47 43 49 48 44 44 45 49 48 49 49 49 48 51 54
42 57 76 50 65 68 64 72 71 76 55 33 49 64 54 72 67 34 78 62 59 62 58 79 66 62 61 70 67 61 34 34 20 55 58 50 51 49 51 48 51 49 48 50 50 48 52 53 52
60 57 67 72 65 72 78 81 81 47 83 82 60 107 89 79 94 62 74 65 63 59 59 50 67 44 63 59 64 61 37 57 53 55 58 58 48 47 46 48 55 52 53 54 55 34 42 27 31
67 62 77 54 62 72 76 96 31 40 42 46 96 38 98 48 96 72 68 62 71 65 67 41 42 74 58 48 49 60 49 59 60 48 43 42 53 34 51 37 54 55 58 55 30 23 60 49 35
40 38 42 48 64 74 97 35 14 74 96 109 107 113 110 62 64 76 62 63 74 72 81 55 55 50 54 43 46 49 58 50 60 59 57 50 66 61 59 62 61 60 62 60 63 56 65 64 60
36 37 36 37 63 83 70 35 81 92 85 104 111 109 108 77 60 65 96 81 66 53 78 54 55 59 56 52 61 57 49 67 71 74 71 69 63 66 68 64 64 64 65 63 64 65 64 53 63
29 30 38 53 49 86 93 84 77 96 74 102 105 93 112 60 64 77 57 81 82 79 82 67 60 58 55 59 63 48 61 65 57 61 78 67 68 72 65 73 71 59 60 58 61 65 61 61 63
26 21 29 55 72 80 91 96 90 82 75 98 93 89 113 106 79 82 82 71 80 62 80 71 74 54 56 58 57 63 56 56 56 51 70 79 66 73 76 76 76 76 75 67 68 60 66 68 72
32 40 28 68 89 83 52 94 87 83 90 82 102 78 105 107 104 93 100 81 76 91 76 58 54 57 62 68 72 69 66 67 64 58 59 75 78 81 70 68 69 67 66 65 61 72 82 84 82
28 24 27 60 95 44 86 81 74 89 86 88 99 98 100 105 110 90 92 100 89 76 60 74 65 62 68 62 56 56 69 63 64 55 73 46 48 76 64 58 63 66 80 82 83 80 84 80 71
29 24 28 80 97 78 85 73 59 91 72 68 82 98 98 105 67 109 104 84 97 82 88 58 63 73 55 82 66 62 62 76 77 76 76 67 71 76 68 70 67 65 78 68 63 63 64 49 81
22 88 92 100 107 89 94 85 85 65 92 77 76 94 99 106 104 110 107 107 92 88 91 73 76 74 91 89 68 89 66 67 72 67 86 64 79 60 85 56 64 58 58 72 82 83 83 57 58
23 96 98 108 103 101 101 92 88 89 48 46 52 87 98 104 102 77 94 111 102 82 80 73 77 70 64 68 83 95 77 60 84 79 73 82 75 54 64 72 72 64 60 79 64 75 79 76 70
24 98 100 104 100 108 99 100 93 77 85 85 58 82 97 96 104 109 85 98 92 105 81 96 92 97 96 71 91 77 73 75 87 91 93 83 59 77 78 42 75 74 62 71 75 78 64 60 71
34 54 95 101 91 81 98 94 89 91 79 76 64 63 92 94 104 98 111 107 97 107 105 107 107 93 75 93 81 85 84 87 81 74 79 84 84 76 93 88 60 85 78 91 80 72 80 81 79
40 60 107 96 86 80 85 92 97 91 80 82 80 86 64 77 97 107 93 83 104 110 112 111 105 69 81 81 71 84 104 87 88 79 102 91 85 63 86 86 86 93 61 71 89 83 91 86 84
18 73 72 98 95 88 96 97 91 92 95 80 78 59 70 69 79 101 81 91 86 64 109 115 105 81 95 67 105 101 94 85 102 101 95 93 91 91 67 88 85 100 101 71 72 81 93 83 84
59 76 61 104 81 86 88 92 93 87 93 94 92 92 90 85 84 104 109 113 117 121 118 102 91 108 98 96 78 72 76 102 85 76 104 68 91 99 89 89 99 95 62 98 107 103 89 87 90
9 29 90 91 81 84 90 81 82 84 90 91 88 80 91 94 92 93 89 110 112 121 124 115 96 106 116 117 118 72 117 89 98 105 92 69 87 108 102 90 100 71 100 75 78 97 106 104 97
9 7 69 71 68 64 83 89 92 89 92 90 91 92 88 87 80 80 85 103 101 90 119 119 120 118 117 83 122 120 113 109 117 116 116 110 92 94 106 107 95 101 105 75 106 105 103 73 103
Wind_Direction
243 248 242 229 233 236 244 247 237 247 252 237 224 232 240 242 226 238 233 235 235 235 239 237 241 229 232 239 237 230 253 242 258 243 270 274 265 279 287 267 295 283 302 278 309 289 312 316 318
239 237 255 234 220 234 239 243 243 248 246 246 241 232 236 241 241 240 235 237 239 239 233 239 237 244 239 230 234 252 245 250 260 250 258 269 267 286 291 261 295 299 287 305 304 284 291 295 302
226 235 260 221 229 230 234 238 241 244 231 249 226 225 239 223 241 233 234 233 237 228 230 238 236 240 257 238 252 258 257 255 260 266 272 279 262 281 283 292 295 297 296 299 297 303 300 304 303
228 229 231 221 212 234 244 248 249 241 246 253 241 251 216 238 228 236 233 233 232 234 239 237 236 237 241 253 258 258 259 259 262 264 278 286 270 276 281 287 284 276 278 290 295 282 302 304 299
242 235 244 227 230 228 249 251 257 252 251 250 256 249 245 247 244 245 229 232 237 242 247 232 238 239 239 241 252 245 260 256 263 275 255 284 266 280 284 282 285 287 279 289 293 291 302 290 300
233 227 228 227 244 248 254 167 252 254 216 243 248 248 240 245 247 247 249 251 233 231 234 249 239 242 242 249 244 251 261 261 268 264 264 285 284 286 279 286 288 293 289 290 286 294 299 300 303
240 230 235 242 240 236 236 246 261 239 250 252 251 256 237 240 246 235 244 246 242 236 237 234 244 233 241 245 248 252 257 257 268 269 274 276 266 261 267 277 278 288 278 282 287 287 292 296 293
250 236 242 242 227 242 250 249 262 255 250 250 252 256 249 238 245 241 239 248 236 239 244 243 239 244 243 247 251 251 254 260 264 264 268 267 273 275 260 264 281 282 280 283 286 286 289 292 293
240 250 250 253 230 246 227 257 265 257 251 249 249 216 248 244 232 243 236 229 229 240 238 240 258 248 244 245 246 247 252 257 254 262 262 258 271 273 276 274 275 288 281 285 283 285 290 290 296
233 260 253 259 244 231 266 259 259 244 261 245 252 213 255 249 240 230 236 242 246 243 255 243 253 254 252 245 246 249 251 254 254 259 259 261 263 267 267 271 272 284 282 275 285 287 285 292 295
271 246 259 251 256 248 253 239 223 254 227 244 252 251 228 250 217 224 240 274 241 233 248 241 236 247 249 244 256 248 253 256 258 259 259 260 265 267 269 272 274 274 275 276 278 286 288 288 293
281 273 250 244 266 254 259 246 250 256 245 253 247 241 241 235 235 218 229 239 236 242 240 231 235 238 242 243 244 247 252 253 261 259 258 266 266 269 270 275 275 274 277 279 281 284 284 285 288
268 274 268 251 261 264 257 258 257 248 210 242 220 209 219 225 216 236 231 235 241 240 246 240 246 240 243 245 245 248 255 253 257 260 262 263 266 260 263 266 276 272 274 277 278 288 283 286 288
268 272 265 233 227 195 208 196 210 210 231 247 216 234 211 235 217 234 234 240 238 241 241 222 236 238 242 249 252 248 250 255 258 256 263 265 268 266 268 268 270 271 274 276 275 279 281 284 286
245 227 224 212 205 190 185 234 248 200 204 204 208 208 209 235 241 227 230 229 236 239 236 237 249 239 242 240 250 255 255 254 261 262 265 261 261 265 270 272 273 274 275 281 282 282 285 288 284
241 221 217 211 199 183 187 234 195 204 205 203 208 205 205 226 241 216 220 223 235 237 243 232 236 244 247 244 248 253 252 261 262 266 270 268 268 271 272 271 273 276 278 278 281 282 286 287 286
212 207 213 194 203 180 176 176 180 203 204 206 209 204 207 234 235 220 236 220 226 233 242 240 243 242 242 240 244 248 254 257 255 258 266 258 268 271 270 275 273 269 272 277 278 282 282 285 285
181 198 204 182 179 165 172 194 189 201 206 201 207 203 205 202 223 223 206 234 223 230 236 244 243 234 252 244 250 244 251 252 256 259 256 257 263 264 271 269 269 271 274 278 281 283 282 285 286
171 182 236 171 162 165 190 190 185 192 204 203 204 200 205 203 208 202 216 227 232 223 236 242 247 245 249 255 251 247 251 247 252 259 262 259 261 261 262 265 270 272 274 278 279 282 282 283 284
244 237 247 176 174 230 176 177 177 201 209 206 204 203 201 202 203 218 206 218 218 233 208 239 240 243 246 253 241 247 251 252 251 259 255 265 260 258 262 270 271 272 270 271 274 277 279 281 283
247 249 215 169 168 170 165 167 174 205 212 203 197 202 199 207 228 206 213 225 221 228 230 245 248 244 230 250 249 249 252 255 252 257 254 260 264 261 268 268 274 278 273 277 275 279 281 280 276
244 160 156 161 163 184 183 195 190 190 203 204 200 201 199 201 204 207 211 215 212 227 226 238 238 246 246 248 237 251 253 253 248 262 256 261 262 268 261 269 270 269 271 271 269 271 273 281 283
257 165 164 167 175 187 188 194 189 205 187 205 203 201 203 203 209 225 216 213 222 230 235 248 240 247 247 254 246 249 257 255 262 255 265 263 269 260 273 269 269 273 277 274 281 282 285 289 289
263 170 174 173 182 183 185 187 199 199 209 208 200 202 204 204 205 205 222 218 225 226 223 233 228 235 241 250 251 240 261 266 258 261 265 268 262 269 269 265 271 271 277 280 283 284 285 286 288
175 180 182 182 189 195 184 190 181 199 205 195 190 202 206 205 205 208 208 215 209 225 226 226 233 234 245 229 253 251 246 254 263 266 268 270 265 273 265 274 264 274 276 272 278 284 284 286 286
178 179 180 188 189 197 196 187 199 199 202 211 209 205 210 207 205 208 215 227 226 225 227 231 231 247 244 245 254 255 246 259 260 267 260 255 274 274 270 273 278 276 278 282 277 280 274 284 285
174 181 185 188 190 187 191 190 194 198 203 194 200 196 205 202 205 210 225 225 230 238 230 225 234 243 241 250 245 238 255 259 257 260 264 266 270 272 274 273 278 275 274 277 276 282 278 284 287
179 183 191 183 192 195 189 191 195 204 199 205 213 213 217 212 209 211 211 212 212 220 227 233 237 238 243 247 254 254 259 256 261 263 258 267 265 267 269 273 268 272 274 279 274 276 282 285 285
326 175 186 191 198 198 196 205 203 209 206 201 211 207 215 221 218 213 211 216 216 219 221 232 236 235 238 242 241 258 247 256 258 256 264 267 267 260 264 272 270 270 271 276 283 277 278 280 283
317 240 196 197 202 202 196 200 205 208 211 211 213 218 218 219 218 217 222 217 221 229 223 224 230 234 237 250 242 244 250 254 251 252 254 259 265 268 265 265 273 272 272 281 276 276 279 280 278